Location: Gettysburg
(39.8310°N, 77.2310°W)
Time: 06:37:44
(UTC-04:00)

Envisat - Visible Passes

Search period start: 28 May 2023 00:00
Search period end: 07 June 2023 00:00
Orbit: 763 x 765 km, 98.2° (Epoch: 27 May)

Date Brightness Start Highest point End Pass type
(mag) Time Alt. Az. Time Alt. Az. Time Alt. Az.
28 May 5.3 03:58:08 10° NE 04:01:46 20° E 04:05:23 10° SE visible
29 May 3.2 04:58:49 10° NNE 05:03:55 78° ESE 05:08:59 10° S visible
30 May 4.5 04:22:04 10° NNE 04:26:40 34° E 04:31:14 10° SSE visible
31 May 5.5 03:46:23 10° ENE 03:49:13 15° E 03:52:03 10° SE visible
01 Jun 3.6 04:46:27 10° NNE 04:51:29 60° E 04:56:28 10° S visible
02 Jun 4.9 04:09:57 10° NE 04:14:11 26° E 04:18:22 10° SSE visible
03 Jun 5.7 03:35:19 10° ENE 03:36:39 11° E 03:38:00 10° ESE visible
04 Jun 4.0 04:34:09 10° NNE 04:39:02 45° E 04:43:52 10° S visible
05 Jun 5.3 03:57:58 10° NE 04:01:39 20° E 04:05:19 10° SE visible
06 Jun 3.2 04:58:41 10° NNE 05:03:47 80° ESE 05:08:51 10° S visible
